RH
54 53 52 51 49 47 46 44 43 42 40 38 36 34 33 36 40 45 49 51 53 55 55 55 55 57 61 66 73 78 83 84 83 82 80 77 73 69 67 69 73 77 80 82 83 84 85 85 85 84 83 81 80 79 77 77 77 78 79 80 80 80 80 79 78 77 76 75 75 76 78 81 83 83 82 81 81 81 81 81 80 79 79 79 79 80
53 52 51 50 50 49 48 47 46 46 44 42 40 37 35 33 34 37 41 46 50 54 56 56 57 59 62 68 73 77 81 83 83 83 81 78 74 69 66 68 71 75 77 77 78 79 81 83 84 84 84 82 81 80 79 78 78 79 80 81 81 81 81 80 79 78 77 76 77 78 80 82 83 83 82 81 81 81 82 82 81 81 80 80 81 81
55 53 52 51 50 50 49 48 48 47 46 45 43 42 40 38 36 35 36 41 47 52 55 57 58 60 63 67 71 74 78 80 82 82 81 79 75 70 66 66 68 71 74 74 73 73 73 76 80 83 84 84 83 82 81 80 80 80 82 83 83 82 82 81 80 79 78 78 79 80 82 82 83 83 83 82 82 82 83 84 83 83 82 83 83 83
55 55 54 52 51 50 49 48 48 47 46 46 45 45 45 44 43 40 38 39 43 48 53 55 56 58 60 63 66 69 72 75 77 79 80 78 75 71 66 63 63 66 69 70 70 69 68 68 71 75 79 82 84 84 84 83 83 83 84 84 84 84 83 83 82 81 81 81 82 83 84 84 84 84 83 83 83 84 85 85 85 85 85 85 85 84
57 56 55 53 52 50 49 48 47 47 46 46 47 48 49 49 49 47 44 42 43 45 48 50 52 53 55 56 58 60 63 66 69 72 75 75 73 70 66 62 60 60 62 64 66 66 65 63 63 64 67 72 77 81 83 85 85 85 86 86 85 85 85 85 84 84 83 84 85 85 86 86 85 84 84 83 84 85 86 86 86 85 85 85 85 85
58 58 57 55 53 51 49 48 47 47 47 48 51 55 59 58 56 53 50 48 46 45 45 45 46 46 47 49 50 52 54 56 59 63 66 68 69 68 65 61 58 56 56 58 59 60 60 59 58 57 57 60 64 70 76 80 84 85 86 87 86 86 86 86 86 86 85 86 86 86 87 86 86 85 84 84 85 86 87 86 86 86 86 86 85 85
59 59 59 58 56 54 51 50 50 49 49 50 56 65 74 73 68 60 52 50 48 47 44 42 41 40 41 42 43 45 46 48 51 54 58 61 62 63 62 60 57 55 54 54 54 54 55 54 53 52 52 52 54 59 64 71 77 82 85 86 87 87 87 87 87 87 87 87 87 87 87 86 86 85 85 85 86 86 86 86 86 86 86 86 86 85
57 59 60 61 60 59 56 55 54 53 53 52 57 67 79 80 77 71 61 54 49 46 43 40 38 36 36 37 38 39 41 43 46 50 53 56 57 57 57 57 55 54 53 52 52 52 51 50 49 48 48 48 49 51 56 62 69 76 82 85 87 87 87 88 88 87 87 87 87 87 87 86 86 86 85 86 86 86 86 86 86 86 86 86 86 86
58 60 62 63 63 63 62 60 60 59 59 56 58 64 76 79 80 78 74 65 56 49 43 39 36 35 34 33 34 34 35 38 43 48 53 55 55 54 54 54 54 54 53 52 52 51 50 48 46 45 44 44 45 47 51 56 63 70 78 83 86 87 88 88 87 87 87 87 87 87 87 86 86 86 85 85 86 86 86 86 86 86 86 86 86 86
61 63 65 65 65 65 65 65 65 65 65 63 62 63 68 73 77 78 79 75 65 54 44 40 36 33 32 31 31 31 31 33 38 44 51 54 54 54 53 53 54 54 53 53 52 51 50 47 45 43 42 42 43 44 47 52 59 67 75 81 85 87 87 87 87 87 87 87 87 87 87 86 86 86 85 85 86 86 86 86 86 86 86 86 86 86
66 67 68 68 67 67 67 67 67 68 68 68 67 66 66 68 71 74 76 73 67 57 47 40 36 33 31 30 29 29 28 29 32 38 45 49 51 51 51 52 53 54 54 53 52 51 50 47 45 43 41 41 41 43 45 50 57 64 72 79 83 85 86 87 87 87 87 87 87 87 87 87 86 86 86 85 85 85 85 86 86 86 86 86 85 85
68 69 70 70 70 69 68 67 67 67 68 69 69 69 69 68 68 67 67 65 61 56 49 43 38 35 32 31 30 30 29 29 30 33 39 42 45 47 48 48 49 51 53 54 53 51 50 48 46 43 41 41 41 43 45 49 55 62 70 77 82 84 85 85 86 87 87 87 87 87 87 87 86 86 86 85 85 85 85 85 85 86 85 85 85 85
68 70 72 72 72 71 69 67 66 65 65 66 68 69 70 69 68 66 63 60 57 54 50 46 43 40 37 36 35 35 35 35 35 37 40 42 43 44 43 42 43 46 50 52 52 51 50 49 47 45 43 42 42 43 46 50 55 61 69 76 80 83 84 85 85 86 87 87 87 87 87 87 86 86 86 85 85 84 84 84 85 85 85 85 85 85
72 75 76 75 74 72 68 67 65 63 62 63 64 66 68 68 68 66 63 60 57 54 52 51 50 49 48 48 48 48 48 48 49 48 48 47 46 43 41 37 36 38 42 46 48 48 48 49 48 46 44 44 44 46 49 52 56 62 68 75 79 83 84 85 85 86 87 87 87 87 87 87 86 86 86 85 85 84 83 83 83 85 85 85 85 85
79 81 81 80 78 76 72 69 68 66 65 64 64 65 66 66 65 64 62 61 59 57 56 57 58 60 64 66 67 66 65 65 63 60 56 51 47 43 39 35 32 31 33 36 39 42 44 47 47 46 45 46 48 51 54 57 60 64 69 74 79 82 85 85 86 86 87 87 87 87 87 87 87 86 86 86 85 84 83 83 83 84 85 85 85 85
78 80 81 82 82 81 79 78 76 75 74 73 72 71 70 66 62 60 60 62 62 62 63 65 68 72 76 78 79 78 76 75 72 67 59 51 46 42 38 34 31 28 27 29 32 36 41 44 46 46 47 49 52 56 61 63 65 68 70 75 78 82 85 86 87 87 87 87 87 87 87 87 87 86 86 86 85 85 84 83 83 84 84 84 85 85
75 80 81 76 78 80 78 80 81 80 81 80 79 78 76 71 64 59 59 66 70 72 73 74 77 79 81 81 81 80 80 78 76 71 63 55 49 44 40 35 32 29 26 26 29 33 39 44 47 49 51 54 58 63 68 70 71 72 73 75 78 81 84 86 87 87 87 87 87 87 87 87 87 86 86 86 85 85 84 84 84 84 84 84 85 85
64 72 78 79 80 79 78 77 77 77 78 78 79 79 79 77 71 64 62 72 79 82 81 81 82 82 81 81 81 80 80 80 78 75 70 62 55 49 44 40 36 32 29 28 30 34 40 46 50 54 57 60 65 69 74 76 77 76 76 77 78 80 83 85 86 87 87 87 87 87 87 87 87 87 86 86 85 85 84 84 84 84 84 84 84 85
64 62 65 68 70 71 72 76 78 78 78 78 78 79 79 79 76 72 67 74 80 85 84 83 82 81 81 80 79 78 78 77 76 73 69 64 60 55 50 46 43 39 35 33 34 37 43 48 52 57 61 66 71 75 79 80 81 81 80 80 80 81 83 85 86 87 87 87 87 87 87 87 87 87 86 86 85 85 84 84 84 84 84 84 84 85
76 71 68 64 61 59 57 59 65 73 79 80 81 80 80 80 79 76 72 71 77 83 82 82 81 80 79 79 77 74 70 67 66 66 66 65 63 60 56 54 51 47 42 39 39 42 45 48 52 57 62 67 73 77 81 83 84 84 84 83 83 83 84 85 86 87 87 87 87 87 87 87 87 87 87 86 86 85 85 85 85 85 85 85 85 85
82 82 80 77 74 71 67 60 58 61 71 81 83 82 82 81 80 78 76 71 74 79 81 81 80 78 76 75 72 68 64 68 71 73 73 73 71 68 65 64 62 57 51 47 46 46 47 49 51 54 59 65 70 76 81 83 85 85 85 85 84 84 85 86 86 87 87 87 87 87 87 87 87 87 87 87 87 86 86 86 86 86 86 85 85 85
70 76 80 82 82 82 81 79 76 74 75 81 82 82 83 82 82 81 79 75 73 74 76 77 76 72 69 65 62 63 71 78 83 84 83 82 80 77 74 74 71 67 59 54 51 50 50 50 51 53 56 60 66 72 77 81 84 85 85 85 85 85 85 85 86 87 87 87 87 87 87 87 87 87 87 87 87 87 87 86 86 86 86 86 86 86
43 51 59 66 72 76 80 82 83 83 84 83 83 82 82 82 82 82 81 78 75 72 71 71 68 62 57 53 56 64 79 83 84 84 83 83 83 82 80 79 77 72 65 58 54 53 53 53 52 53 54 57 62 67 73 77 81 83 84 84 84 84 84 84 85 85 86 87 87 87 87 87 87 87 87 87 87 87 86 86 86 86 85 85 85 85
22 27 32 39 46 54 64 73 79 82 83 82 82 83 82 82 82 82 82 80 77 74 70 68 63 57 50 49 58 72 84 83 83 83 83 83 83 82 81 80 78 74 67 60 57 56 58 57 56 55 55 57 61 66 71 75 78 80 82 83 83 83 82 82 82 83 84 86 87 87 87 87 87 87 87 86 86 86 86 86 85 85 85 85 85 85
13 15 17 20 24 29 38 49 61 73 80 82 83 83 82 83 83 83 82 81 80 77 75 72 67 60 52 54 66 78 83 83 83 83 83 83 82 81 80 79 78 75 68 60 57 58 62 62 62 60 61 63 66 69 73 75 77 79 80 80 80 80 80 80 79 80 81 83 85 86 87 87 87 87 86 86 86 86 86 85 85 85 84 84 84 85
11 12 12 13 14 16 19 28 38 50 64 74 80 83 83 83 83 82 82 82 82 81 80 78 73 67 60 62 71 80 83 83 83 83 83 82 81 80 79 79 78 75 70 61 57 58 63 66 67 67 70 73 76 77 78 78 79 79 79 78 78 77 77 77 77 77 78 80 83 85 86 86 87 86 86 86 86 86 85 85 85 84 84 84 85 85
10 11 11 11 11 11 12 16 22 30 40 53 64 73 78 81 82 81 83 83 83 82 82 81 78 75 69 68 72 77 82 82 82 83 83 82 81 80 80 79 78 77 74 65 59 57 61 66 69 72 76 81 83 84 83 82 81 80 79 78 77 76 76 75 75 75 76 78 80 82 84 85 86 86 86 86 86 85 85 85 85 84 84 85 85 85
9 10 10 10 10 11 10 11 13 18 24 32 42 52 61 68 73 76 80 83 83 83 84 83 81 80 77 74 74 76 82 82 82 83 82 83 83 82 81 80 80 79 77 71 63 58 58 64 68 72 77 83 85 85 85 84 83 82 81 79 78 76 75 75 74 74 75 77 79 80 82 84 85 86 86 86 85 85 85 85 85 85 85 85 85 85
8 8 9 9 9 10 10 10 10 12 14 20 26 33 41 49 56 62 69 75 78 81 83 83 83 82 81 79 78 79 82 83 83 83 83 83 83 83 82 81 80 79 78 76 69 62 58 62 66 69 74 81 84 85 85 85 85 84 83 81 80 78 76 75 75 75 75 76 77 79 81 84 85 86 86 86 85 85 85 85 85 85 85 85 85 84
7 7 7 8 8 8 9 9 9 10 10 12 16 21 27 33 39 45 51 59 66 72 76 79 81 82 82 82 81 81 83 82 83 83 83 84 84 83 83 83 82 81 80 79 75 69 64 63 65 67 70 77 82 84 84 84 85 85 85 84 82 80 79 77 76 76 76 75 76 78 81 84 85 86 86 86 85 85 85 85 85 85 85 85 84 84
6 6 7 7 7 7 8 8 8 9 9 9 10 13 17 22 27 32 37 43 50 57 63 69 74 77 79 80 80 81 82 82 83 83 84 83 83 83 83 83 83 82 82 82 80 77 73 70 68 67 68 73 79 83 83 83 84 84 85 85 84 83 82 81 80 79 78 77 77 78 81 83 84 85 86 86 86 85 85 85 85 85 85 85 84 83
5 5 6 6 6 6 7 7 7 7 8 8 8 9 10 13 17 22 26 31 36 41 47 55 62 68 72 74 76 78 80 80 81 82 83 83 83 83 83 83 82 82 83 84 84 83 81 79 76 74 71 74 78 82 83 83 83 84 84 84 85 85 84 84 84 83 82 81 80 81 82 83 83 84 85 85 85 85 85 85 85 85 85 84 84 83
4 4 5 5 5 5 6 6 6 6 6 7 7 8 8 9 11 13 17 21 25 29 34 40 47 56 64 68 71 73 75 76 78 80 81 81 81 81 81 82 82 82 83 84 84 85 84 84 83 81 80 79 81 82 84 84 84 84 84 84 84 84 84 85 85 84 84 84 84 84 84 83 82 82 82 83 84 85 85 85 85 85 85 84 84 83
3 3 4 4 4 5 5 5 5 5 6 6 6 6 7 7 8 9 10 13 16 19 22 26 32 40 51 63 69 71 72 72 74 76 77 77 77 77 78 79 80 81 82 83 84 84 84 84 84 83 83 84 83 83 84 84 84 84 84 84 84 84 84 84 84 84 84 84 84 84 85 84 83 82 81 81 82 83 85 85 85 85 85 84 84 84
2 3 3 3 3 4 4 4 4 5 5 5 5 5 6 6 7 7 8 9 10 12 14 16 19 24 32 47 60 69 75 75 75 74 74 73 71 70 71 72 75 78 80 83 83 84 84 84 83 83 84 84 84 84 84 84 84 84 84 84 84 84 84 84 84 84 84 84 84 84 84 85 84 84 82 80 80 81 84 85 85 85 85 84 84 84
2 2 2 2 3 3 3 3 3 4 4 4 4 5 5 5 6 6 7 7 8 9 9 10 11 13 16 24 36 51 68 77 79 77 76 74 71 68 65 63 63 67 73 77 80 82 84 84 84 84 84 84 84 84 84 84 84 84 84 84 84 84 84 84 85 84 84 84 84 84 84 84 84 84 84 83 82 82 83 85 85 85 85 84 84 84
3 3 3 3 2 2 2 3 3 3 3 3 4 4 4 4 5 5 5 6 7 7 8 8 9 9 10 11 17 27 44 66 76 78 78 78 77 74 70 63 56 54 58 65 72 77 80 82 84 84 84 84 84 84 84 84 84 83 83 84 84 84 84 85 85 85 85 85 84 84 84 84 84 84 84 84 84 84 84 85 85 85 85 84 84 84
4 3 3 3 3 3 3 2 2 3 3 3 3 3 3 4 4 4 4 5 5 6 7 7 8 8 8 8 9 13 20 40 58 71 79 79 79 79 77 72 62 52 45 50 57 66 73 78 82 84 85 85 84 84 84 84 84 84 83 84 84 84 84 85 85 85 85 85 85 84 84 84 84 84 84 84 85 85 85 85 85 85 85 84 84 83
4 4 4 4 3 3 3 3 3 3 2 3 3 3 3 3 3 3 4 4 4 5 5 6 7 7 8 8 8 9 9 17 33 52 70 76 79 80 79 77 72 64 50 41 42 49 60 68 75 80 83 84 84 84 84 84 84 84 84 84 84 84 84 84 85 85 85 85 85 85 85 84 84 84 84 84 84 85 85 85 85 84 84 84 84 83
5 5 5 4 4 4 4 3 3 3 3 3 3 3 3 3 3 3 3 3 3 4 4 5 5 6 7 7 8 8 8 9 14 24 40 59 72 79 80 78 79 76 64 47 36 33 43 54 63 71 77 81 83 84 84 84 84 84 84 84 84 84 84 84 84 85 85 85 85 85 85 85 85 84 84 84 84 84 85 85 85 84 84 84 83 83
7 7 6 6 6 5 5 5 5 4 4 4 3 3 3 3 3 2 3 3 3 3 3 4 4 5 5 6 7 7 8 8 9 12 17 32 52 70 78 78 78 77 75 68 50 32 28 38 48 58 67 74 79 82 84 84 84 83 84 84 84 84 84 84 84 84 85 85 85 85 85 85 85 84 84 84 84 84 84 85 85 85 85 84 84 83
10 9 9 8 8 8 8 7 7 7 6 5 5 4 4 3 3 3 2 2 2 3 3 3 3 4 4 5 5 6 6 7 7 8 10 16 28 43 61 72 77 79 79 80 68 50 31 27 32 42 52 61 69 76 81 83 84 84 84 84 84 84 84 84 84 84 84 85 85 85 85 85 85 84 84 84 84 84 84 84 84 85 85 85 84 84
13 13 13 13 12 12 12 12 11 10 9 8 7 6 6 5 5 4 3 3 3 2 2 3 3 3 3 4 4 5 5 6 6 7 7 9 13 21 33 51 66 77 81 80 76 67 53 34 27 29 36 45 54 63 71 77 81 83 84 84 83 83 84 84 84 83 84 84 84 84 85 84 84 84 84 84 84 84 84 84 84 84 85 85 85 84
18 18 18 18 17 17 17 16 15 15 14 13 12 11 10 10 8 7 6 5 4 3 3 3 3 3 3 3 4 4 4 5 5 6 6 7 8 11 15 25 43 61 75 78 78 77 76 57 40 28 23 30 39 48 57 65 73 78 82 83 84 84 84 84 84 84 83 83 84 84 84 84 84 84 84 84 84 84 84 84 84 84 84 84 85 85
23 23 22 22 22 21 21 20 19 19 19 18 17 16 16 15 14 12 10 9 7 6 5 4 3 3 3 3 3 4 4 4 4 5 5 6 6 7 9 13 23 38 57 68 74 76 80 74 61 45 27 23 27 35 43 52 60 68 75 79 82 84 84 84 84 84 84 84 84 84 84 84 84 84 84 84 84 84 84 84 84 83 84 84 84 84
27 26 26 26 25 24 23 23 22 22 21 20 20 19 19 18 18 17 15 14 12 10 9 7 6 5 4 4 4 4 4 4 4 4 4 5 5 5 6 8 12 20 33 47 58 66 70 74 75 68 51 35 28 26 31 39 47 56 63 70 76 80 83 83 84 84 84 84 84 84 84 84 84 83 84 84 84 84 84 84 84 83 83 84 84 84
30 29 29 29 28 27 26 26 25 24 22 21 21 20 20 19 19 19 18 17 17 15 13 12 10 8 7 6 5 5 5 5 4 4 4 4 4 4 5 5 7 9 14 21 30 39 48 59 68 73 70 57 44 33 26 30 37 45 54 60 66 72 77 81 83 84 84 84 84 84 83 83 83 83 84 84 84 84 84 84 84 84 83 83 84 84
33 32 32 32 31 31 30 29 28 26 25 24 23 21 20 20 19 18 18 18 18 18 17 16 14 12 10 9 8 7 6 6 5 5 5 4 4 4 4 4 5 6 7 10 13 18 24 35 47 60 69 67 59 48 37 31 33 38 46 52 59 64 69 74 78 81 83 83 83 83 83 83 83 83 84 84 84 84 84 84 84 84 84 83 83 83
35 35 35 34 34 33 32 31 30 29 27 26 25 24 22 21 20 19 18 18 18 18 17 17 16 15 14 12 11 10 9 8 7 7 6 5 5 4 4 4 4 4 5 6 8 10 12 18 27 39 52 61 62 58 50 43 40 40 44 50 55 60 63 67 71 75 79 81 83 83 84 84 84 83 83 84 84 84 84 84 84 84 84 84 83 83
37 37 36 35 34 32 31 30 28 27 26 25 24 23 22 21 20 19 18 18 18 17 17 16 16 16 15 15 14 13 12 10 10 9 8 7 6 6 5 4 4 4 4 4 5 6 8 10 15 23 32 46 55 59 59 55 53 53 56 60 62 63 64 65 66 69 73 77 80 82 83 83 83 83 83 83 83 84 84 84 84 84 84 84 83 83
38 36 35 33 31 29 27 25 24 22 21 20 20 19 19 19 18 18 18 18 17 17 16 16 16 16 15 15 15 15 14 13 12 11 10 9 8 7 6 6 5 5 4 4 4 5 6 8 10 14 20 30 41 50 59 61 64 67 71 74 75 75 72 70 69 68 70 73 76 79 81 82 83 83 83 83 83 83 84 84 84 84 84 84 83 83
Wind_Speed
62 62 62 61 61 60 59 58 57 56 56 56 56 57 58 58 57 57 56 55 54 54 55 55 55 54 54 53 52 50 47 44 42 41 42 43 43 44 44 44 43 43 42 42 42 43 44 45 47 49 52 54 55 56 56 55 53 51 50 49 48 47 47 46 45 44 43 43 42 40 39 38 37 37 37 37 36 35 35 34 33 32 32 31 30 29
64 64 63 63 63 63 62 60 59 58 57 56 56 57 58 58 58 58 57 56 55 54 54 54 54 53 53 52 52 51 49 46 44 43 43 44 44 45 45 45 43 42 40 39 38 38 39 40 42 44 47 50 53 54 55 54 53 52 50 49 48 48 47 46 46 45 45 44 42 40 38 37 37 37 38 37 36 35 34 34 33 33 32 31 30 30
66 65 64 64 64 64 63 62 60 59 58 57 56 56 57 57 58 58 57 56 55 54 54 54 53 52 52 52 51 51 50 49 47 45 45 46 46 47 47 47 46 44 42 40 38 36 36 36 37 40 42 46 49 51 53 53 53 52 51 50 49 48 47 47 46 46 45 44 43 40 38 37 38 38 39 38 37 35 34 34 34 34 33 32 32 31
67 66 65 65 64 64 64 63 61 60 59 58 57 56 56 56 56 56 56 56 55 54 54 53 52 52 51 51 51 51 51 50 49 48 48 48 49 49 49 49 49 48 47 45 42 40 38 37 36 37 39 41 44 47 49 51 52 52 52 51 50 49 48 47 46 46 45 44 43 41 38 37 37 39 39 38 37 36 36 36 37 36 35 34 33 32
67 66 65 65 64 64 64 63 62 61 60 58 57 56 55 55 55 55 55 55 55 55 54 54 53 52 52 52 52 52 52 52 51 51 51 51 51 51 51 51 51 51 51 50 48 46 43 41 39 38 38 39 41 43 46 48 50 51 52 52 51 50 49 48 47 46 46 45 43 41 39 37 37 38 39 38 37 37 38 39 39 38 37 36 35 34
65 65 65 64 64 64 64 63 62 61 60 59 57 56 55 55 55 54 54 54 55 55 55 55 54 54 53 54 54 54 54 53 53 53 52 52 52 52 52 52 53 53 53 52 51 50 48 45 43 41 40 39 40 41 43 45 47 49 50 51 51 51 50 48 47 47 46 46 44 42 40 38 37 37 38 37 37 38 39 40 40 39 38 38 37 35
64 64 63 63 63 63 63 63 62 62 61 59 56 54 54 55 56 56 55 55 55 56 56 56 56 55 55 55 56 56 56 55 55 54 54 54 54 54 54 54 54 54 53 53 53 52 51 49 47 45 43 42 41 41 42 43 44 46 48 49 50 50 49 49 48 47 47 46 45 43 41 39 38 37 37 37 38 39 40 40 40 39 39 39 38 37
63 63 63 62 62 62 62 62 62 62 61 60 57 54 54 54 56 57 58 58 58 58 58 58 57 57 57 57 57 58 58 57 57 56 55 55 55 55 55 55 55 54 54 54 53 52 51 50 49 47 46 44 43 43 42 43 43 44 45 47 48 48 48 48 48 47 47 47 45 43 41 40 39 38 38 38 39 39 40 39 39 39 40 39 39 38
64 63 63 62 62 62 62 62 62 62 62 61 59 57 55 55 56 57 60 61 61 61 60 59 59 58 58 58 59 59 59 59 58 58 57 57 56 56 56 56 56 55 55 54 54 53 52 51 50 49 47 46 45 44 44 44 44 44 45 45 46 46 47 47 47 47 47 46 45 43 41 40 39 39 39 39 39 39 39 38 39 39 40 40 40 39
64 63 63 63 63 62 62 63 63 62 62 62 61 60 59 58 58 59 61 63 64 64 63 62 60 59 59 59 60 60 61 61 60 59 59 58 58 57 57 57 57 56 56 55 55 54 53 52 51 50 49 48 47 46 45 45 45 45 45 45 45 45 45 45 46 46 46 45 45 43 42 40 40 39 39 39 39 38 38 38 38 39 40 41 41 41
65 64 64 63 63 63 63 63 64 63 63 63 63 63 63 63 63 63 64 66 66 66 66 65 63 61 60 60 60 61 61 62 62 61 61 60 59 59 58 58 57 57 57 57 56 55 54 52 51 50 49 49 48 47 47 46 46 45 45 45 44 44 44 44 44 44 45 44 44 43 42 41 40 40 40 40 39 39 38 38 38 39 40 41 42 42
65 64 64 64 64 64 64 64 65 64 64 64 64 65 65 66 67 67 67 68 68 68 67 67 65 62 61 60 60 61 61 62 62 62 62 61 60 60 59 59 58 58 58 58 57 56 55 53 52 51 50 50 49 48 48 47 47 46 46 45 44 44 43 43 43 43 44 44 43 43 42 41 41 41 40 40 40 39 39 38 38 39 40 42 43 44
64 63 63 63 64 64 64 65 65 65 65 65 66 66 67 68 68 68 68 68 68 68 68 67 65 63 61 60 60 60 61 62 62 62 62 61 61 60 60 60 59 59 59 58 58 57 56 55 54 53 52 51 50 49 49 48 48 47 46 45 44 43 43 43 43 43 43 44 43 43 42 42 41 41 41 41 40 40 39 39 39 39 40 42 44 45
62 61 61 62 63 64 64 64 65 65 65 66 67 67 68 68 68 68 68 68 68 68 67 66 65 63 61 60 60 60 61 62 62 62 62 61 61 61 61 61 60 60 59 59 58 58 57 56 55 54 53 52 51 50 50 49 49 48 47 46 45 44 43 43 43 43 43 44 44 44 43 42 42 41 41 41 41 40 40 39 39 39 41 43 45 46
61 61 61 62 62 63 64 64 64 65 66 66 67 67 68 68 67 67 67 68 68 67 66 65 63 61 60 60 60 61 62 62 63 62 62 62 61 61 62 62 61 61 60 60 59 58 57 57 56 55 54 53 52 51 50 50 49 48 47 46 45 44 43 43 43 44 44 44 44 44 44 43 42 42 42 41 41 40 40 40 40 40 42 43 45 47
63 63 63 64 64 64 65 65 65 66 66 67 67 67 67 67 67 66 66 67 67 66 65 64 62 60 60 61 63 64 64 64 64 64 63 63 63 62 62 62 62 61 60 60 59 58 57 57 56 55 54 53 52 51 50 50 49 49 48 47 45 45 44 44 44 45 45 45 45 45 44 44 43 43 42 42 41 41 40 40 40 41 42 44 45 47
65 65 65 65 65 66 66 67 67 67 67 67 67 66 66 66 65 65 65 66 66 65 64 63 61 61 63 66 67 67 66 66 66 66 65 65 64 64 63 62 61 61 60 59 58 58 57 56 56 55 54 53 52 51 51 50 49 49 48 47 46 46 45 45 45 46 46 46 46 45 45 45 44 44 43 42 42 41 41 41 41 42 42 43 45 46
66 67 67 66 66 66 67 69 69 70 69 69 69 68 66 65 65 65 65 66 67 66 65 64 63 64 67 69 70 68 68 67 68 68 67 66 66 64 63 61 60 60 59 58 58 57 56 56 55 54 53 53 52 52 51 50 50 49 48 48 47 47 46 46 46 46 47 47 46 46 46 45 45 45 44 43 42 42 41 41 42 42 42 43 44 45
67 67 68 68 68 68 69 70 71 72 72 71 71 70 68 67 66 65 66 67 69 69 67 66 66 67 68 70 69 69 69 69 70 70 69 69 67 65 63 61 60 58 58 57 57 56 56 55 54 54 53 53 52 52 51 51 50 50 49 49 48 48 47 47 47 47 47 47 47 47 46 46 46 46 45 44 43 42 42 42 42 42 43 44 45 45
67 67 68 69 70 70 71 72 73 74 74 73 72 71 71 70 69 68 69 70 72 72 70 68 68 68 68 68 69 70 71 72 73 73 72 71 69 66 64 61 59 58 57 56 56 56 56 55 55 54 53 53 53 52 52 51 51 51 50 50 50 49 49 48 48 48 48 48 48 47 47 47 47 46 45 44 44 43 43 42 43 43 43 44 45 46
67 68 69 70 70 71 72 73 74 75 76 75 74 74 74 74 73 73 74 74 75 75 73 70 69 68 67 68 69 71 73 73 74 75 74 72 69 67 65 62 60 58 57 56 56 56 56 56 55 54 54 53 53 52 52 52 52 52 52 51 51 51 50 50 50 50 49 49 49 48 48 47 47 46 45 45 44 43 43 43 43 43 44 44 45 46
66 67 68 69 69 70 71 72 73 74 75 75 74 73 73 73 73 75 77 77 77 77 76 73 70 68 68 69 71 72 72 72 74 75 74 71 69 67 65 62 60 58 57 56 56 56 56 55 55 54 54 53 53 52 52 52 52 52 52 52 52 52 51 51 51 51 50 50 50 49 48 48 47 46 46 45 44 44 44 44 44 44 44 45 46 47
67 68 68 69 69 69 69 70 70 70 70 70 69 68 67 67 69 72 75 77 77 76 75 72 69 68 68 70 71 70 69 70 72 72 70 68 66 66 64 62 60 58 57 56 55 55 55 55 54 54 54 53 53 52 52 51 51 52 52 52 52 52 52 52 52 51 51 51 50 50 49 48 48 47 46 45 45 44 44 44 44 44 45 46 47 48
69 70 70 70 70 70 69 69 68 67 66 65 64 63 63 63 64 67 71 74 74 74 72 69 66 65 66 67 67 66 65 67 69 69 66 63 62 61 60 59 58 57 56 55 54 54 54 53 53 53 52 52 52 52 52 51 51 51 51 52 52 52 52 52 52 52 52 51 51 50 49 49 48 48 47 46 45 45 44 44 45 45 46 47 48 49
73 73 73 73 72 72 71 71 70 69 68 66 65 64 63 62 63 65 67 70 71 71 70 67 64 63 63 64 64 63 63 65 66 65 62 60 58 57 56 56 55 55 55 54 53 53 52 52 52 51 51 51 51 52 52 52 52 51 51 51 51 52 52 52 52 52 52 51 51 50 50 49 49 48 47 46 45 45 44 44 45 46 47 49 50 50
77 76 76 76 75 75 74 73 73 72 72 71 70 69 67 66 65 65 66 67 69 69 69 67 65 63 63 63 63 63 63 64 64 63 60 57 55 55 55 54 54 55 55 55 54 53 52 52 51 51 50 50 51 52 53 53 52 52 51 51 51 51 51 52 52 52 51 50 50 50 49 49 49 48 47 46 45 44 44 45 46 47 49 50 50 51
80 80 79 79 78 78 77 76 75 75 75 74 74 73 71 70 68 68 68 68 69 69 69 69 67 66 65 65 65 65 64 63 63 62 59 55 54 54 55 55 55 56 56 57 56 54 53 53 52 51 50 51 52 53 53 53 53 53 52 52 51 51 51 52 51 51 50 50 49 49 49 48 48 47 47 46 45 44 44 45 47 48 49 50 50 50
83 83 82 82 81 81 80 79 78 77 77 77 76 76 75 73 72 71 71 71 71 71 71 70 70 69 68 68 68 68 65 63 62 61 58 54 53 54 55 56 56 56 57 58 59 58 56 55 54 53 52 52 53 53 54 54 54 54 54 53 53 52 52 52 52 51 50 49 49 48 48 47 47 47 46 45 45 44 45 46 47 49 50 50 50 50
86 86 85 85 84 84 83 82 81 80 79 79 78 78 77 76 75 74 74 74 73 72 73 73 72 71 71 71 71 69 67 64 63 62 60 56 56 56 57 57 57 58 59 60 61 61 60 58 56 55 53 53 53 54 54 54 54 54 54 54 54 54 54 53 53 52 50 49 48 48 47 47 46 46 46 46 45 45 46 47 48 49 50 50 50 49
89 89 88 88 87 87 86 86 85 83 82 81 81 80 80 79 78 77 76 75 74 74 74 74 73 73 73 73 72 70 68 66 65 65 63 61 61 61 60 59 58 59 60 61 62 63 63 61 59 57 56 55 55 55 55 54 54 54 55 55 55 55 55 55 54 53 51 50 49 48 47 47 47 47 47 46 46 45 46 47 49 49 50 50 49 49
93 92 91 91 90 90 89 89 88 87 85 84 83 82 82 81 80 80 78 77 76 76 75 75 74 73 73 73 72 71 69 67 67 67 67 67 66 65 62 60 59 59 59 60 61 62 62 62 60 59 58 57 57 56 56 56 55 54 55 55 56 57 57 56 55 54 53 51 50 49 48 48 48 49 48 48 47 46 47 48 49 50 50 50 49 48
95 94 94 94 93 92 92 91 90 89 88 87 86 85 84 83 83 82 81 80 79 78 77 76 75 74 73 73 73 72 70 69 69 70 70 71 71 69 65 61 60 59 58 58 59 59 59 59 59 59 59 58 58 59 59 58 57 56 55 56 56 57 57 56 56 55 54 52 51 50 50 50 50 51 50 49 48 47 47 48 49 50 50 50 49 48
94 95 95 96 95 95 94 93 93 92 91 89 88 87 86 86 85 85 84 82 81 80 79 78 77 76 74 74 73 73 73 72 72 73 73 74 73 71 68 65 62 60 59 59 59 59 58 58 58 58 58 59 60 60 61 60 59 58 57 57 57 57 56 56 56 56 55 54 53 52 52 52 53 53 52 51 49 48 48 49 50 50 51 50 49 49
90 92 93 94 95 95 95 95 94 93 93 91 90 89 88 88 87 87 86 85 84 83 82 80 79 78 76 75 74 74 74 75 75 76 76 76 75 74 71 69 67 65 63 62 62 61 60 59 59 58 59 60 60 61 62 62 61 61 60 59 58 57 57 56 56 56 56 55 55 55 55 55 55 55 54 53 51 50 49 50 50 51 51 51 50 49
85 87 89 90 92 93 94 95 95 94 94 93 92 91 90 89 89 88 88 87 87 86 85 83 82 81 80 78 76 75 76 77 77 78 78 78 77 76 74 72 71 69 68 67 66 65 63 62 60 60 59 60 61 62 63 63 62 61 60 60 59 58 58 57 56 56 56 56 56 57 57 58 58 58 56 55 53 51 51 51 52 52 52 51 51 50
79 81 83 85 86 88 90 91 92 93 93 93 93 92 91 90 90 90 89 89 89 88 87 86 85 84 83 82 80 79 79 79 79 79 79 79 78 77 76 75 74 72 72 71 69 68 66 64 62 61 61 61 61 62 63 63 62 61 60 59 58 58 57 57 56 56 55 55 56 57 58 59 60 60 59 57 55 53 52 52 53 54 53 53 52 51
72 74 76 78 80 82 84 86 88 89 91 91 92 92 91 90 90 90 90 90 90 90 89 89 88 87 86 85 84 83 83 82 81 81 81 81 80 79 78 77 76 75 74 73 72 70 67 65 63 62 62 62 62 62 63 63 62 60 59 57 56 56 56 56 56 56 55 55 55 56 58 59 60 61 60 59 57 55 55 55 55 55 54 54 52 51
66 68 69 71 73 75 77 80 82 84 86 87 89 89 90 90 90 90 90 90 90 91 91 90 90 90 89 88 87 87 86 85 84 84 84 83 82 81 80 79 78 77 76 75 74 72 70 67 65 64 63 63 63 64 64 63 62 60 58 56 55 54 54 54 54 55 55 54 54 55 56 57 58 59 60 59 59 58 57 57 57 56 55 54 53 52
60 61 63 64 66 68 70 73 75 78 80 82 84 85 87 87 88 88 89 89 90 91 91 91 91 91 91 90 90 89 88 88 87 87 86 85 84 83 82 81 80 79 79 78 76 74 72 70 68 66 65 64 64 64 64 64 62 61 59 56 54 53 52 53 53 54 54 54 53 53 54 55 56 57 57 58 58 58 57 57 57 56 56 55 54 52
54 55 56 58 59 61 63 65 68 71 73 75 78 80 81 83 84 85 87 87 88 90 91 91 92 92 92 92 91 91 90 90 89 89 88 88 86 85 83 82 81 81 81 80 79 77 75 73 71 69 68 67 66 65 65 64 63 62 60 57 55 53 52 52 52 53 53 53 53 53 53 53 54 54 55 55 55 55 56 56 56 55 55 54 53 52
48 49 50 51 53 54 56 58 61 63 65 67 70 72 75 77 79 81 83 84 86 87 89 90 91 92 92 92 92 92 92 91 91 90 90 89 88 87 86 84 83 82 82 81 81 80 78 76 74 72 71 70 69 68 66 65 64 63 61 59 57 55 53 52 52 53 53 53 52 52 52 52 52 53 53 53 53 53 53 53 53 53 53 53 52 52
43 43 44 45 46 47 49 51 53 55 57 60 62 65 68 70 72 75 77 79 81 84 86 87 89 90 91 92 93 93 93 92 92 92 91 91 90 90 89 87 86 84 82 82 82 82 80 78 76 75 73 72 71 70 69 68 66 64 63 61 59 57 55 54 53 53 53 52 52 51 51 51 51 52 52 52 52 52 52 51 52 52 52 51 51 51
38 39 39 39 40 41 43 44 46 48 50 52 55 58 61 63 65 67 70 73 76 79 81 84 86 88 89 91 92 93 93 93 93 93 92 92 92 92 91 90 89 87 84 83 82 82 82 81 79 77 76 74 73 72 71 70 68 67 65 64 62 59 57 56 55 54 53 53 52 51 51 50 51 51 51 51 51 52 52 51 51 51 51 51 51 51
35 35 35 35 35 36 37 38 40 41 43 45 47 50 53 55 57 60 63 66 69 72 75 78 81 83 86 88 90 91 92 93 94 94 94 93 93 93 92 92 91 90 88 86 84 83 83 82 81 80 78 77 75 74 73 71 70 69 68 67 65 63 61 59 57 55 54 53 52 51 50 50 50 50 50 50 51 52 52 52 52 52 51 51 51 51
32 31 31 31 31 31 32 33 35 36 37 39 41 43 45 47 49 52 55 58 61 64 68 71 74 77 80 84 86 88 90 92 93 94 94 94 94 94 94 93 93 92 91 90 88 86 84 83 83 82 81 79 78 76 75 73 72 71 70 69 68 66 64 62 60 58 56 55 53 52 51 50 50 50 50 50 51 51 52 53 53 53 52 52 51 51
29 29 29 29 29 29 30 30 31 32 33 34 36 38 40 41 43 45 48 51 53 56 60 64 67 70 74 78 81 83 85 87 90 92 93 94 95 95 95 95 95 94 94 93 93 91 89 86 85 84 83 82 80 79 77 75 74 72 71 70 69 68 67 65 63 61 59 57 55 53 52 51 50 50 50 50 51 51 52 53 54 54 54 53 53 52
28 28 28 28 28 28 29 29 29 30 31 32 33 34 36 37 38 40 42 45 47 50 53 56 59 63 67 71 74 76 79 82 85 88 90 93 94 95 96 96 96 95 95 95 95 94 92 90 88 86 84 83 83 81 80 78 76 74 73 72 71 69 68 67 65 64 62 60 58 56 54 52 52 51 51 51 51 51 51 52 53 54 55 55 54 53
27 28 28 28 28 28 28 28 29 29 30 31 32 33 34 35 36 37 39 41 42 44 47 49 52 56 60 64 67 70 73 76 79 82 85 88 91 94 95 96 96 96 96 96 95 95 94 93 91 89 87 86 85 83 82 80 78 76 75 74 72 71 70 69 67 66 64 62 60 58 56 55 54 53 53 52 52 52 52 52 53 54 55 56 55 55
27 27 27 27 28 28 28 29 29 30 31 31 32 33 34 34 35 36 37 38 40 41 43 45 47 50 53 57 60 64 67 70 73 76 79 82 86 89 92 94 95 96 96 96 96 96 95 94 93 92 91 89 87 85 84 82 80 78 77 75 74 73 71 70 69 67 66 64 62 60 58 57 56 55 54 53 53 53 53 52 53 53 54 55 56 56
26 26 27 27 27 28 28 29 29 30 31 31 32 33 34 34 35 36 37 38 38 39 41 42 44 46 48 51 54 57 60 64 67 70 73 76 80 83 86 89 91 93 95 96 97 97 97 96 95 94 93 92 90 88 86 84 81 79 77 76 75 74 73 71 70 69 67 66 64 62 60 58 57 56 56 55 55 54 54 53 53 53 54 55 56 56
26 26 26 26 27 27 28 28 29 30 30 31 32 33 33 34 35 36 37 37 38 39 40 41 42 43 45 47 50 52 55 58 61 64 67 71 73 76 79 83 86 88 91 94 96 97 98 98 97 96 95 94 93 91 90 87 84 81 78 76 75 74 73 72 72 71 69 68 66 64 62 60 59 58 58 57 57 56 55 55 54 54 54 54 55 56
Wind_Direction
263 264 264 265 265 265 264 263 262 261 261 260 259 259 260 261 261 262 262 263 263 263 263 263 264 264 265 265 264 263 261 260 259 260 262 264 267 270 271 273 273 271 270 268 267 266 265 265 264 262 260 258 257 256 257 259 262 264 265 266 265 264 263 262 262 263 264 266 267 267 267 268 268 269 269 268 266 264 262 261 262 262 263 264 265 264
264 265 265 265 265 265 265 264 264 263 261 260 259 258 258 259 259 260 261 262 262 262 262 262 263 263 264 264 263 262 260 259 259 260 262 264 266 268 269 270 270 270 269 268 268 268 268 267 265 263 261 259 258 257 257 259 261 263 264 265 266 265 263 262 262 263 264 265 266 266 266 266 266 266 266 266 264 262 261 261 262 262 263 263 264 263
264 265 265 265 265 265 265 265 264 263 262 261 259 258 257 257 258 258 259 260 260 261 261 261 262 262 263 263 263 262 260 260 260 260 262 263 265 267 267 268 268 268 268 269 269 270 270 270 268 266 264 261 259 259 259 259 261 262 264 265 265 265 264 263 263 263 264 265 265 265 264 263 262 262 262 262 261 261 261 261 262 262 262 262 262 262
264 264 264 264 264 264 264 264 263 263 262 261 260 258 257 257 256 256 257 257 258 258 259 260 261 261 262 262 262 262 261 260 260 260 261 262 264 266 267 267 267 267 268 268 269 271 271 272 271 270 267 264 262 261 260 261 261 262 263 264 265 265 265 264 263 263 264 264 264 263 261 259 257 256 257 258 258 258 259 259 260 260 260 261 261 260
263 264 264 263 263 263 263 263 262 262 261 260 260 259 258 257 256 255 255 255 255 256 257 259 260 261 261 262 262 262 262 261 260 260 260 261 263 264 266 267 267 267 268 268 269 270 271 272 272 272 270 268 266 264 263 262 262 263 263 264 264 265 264 264 263 263 263 263 262 261 259 257 255 253 253 253 253 252 253 254 255 256 257 258 259 259
263 263 263 262 262 262 262 261 261 261 260 260 260 260 260 258 257 255 254 254 254 255 256 257 259 260 260 261 262 262 262 261 261 260 260 260 261 263 264 265 266 267 268 268 269 270 270 271 272 272 272 271 269 267 266 265 264 263 263 263 263 263 263 263 263 262 262 261 260 259 257 255 253 251 250 248 247 247 248 249 251 253 255 256 257 257
262 262 262 261 261 260 260 260 260 260 259 258 258 258 259 259 258 257 255 255 255 255 256 257 258 258 259 260 260 261 261 261 260 259 259 260 260 261 263 264 265 266 267 268 269 270 270 271 271 272 272 272 271 270 268 267 266 265 264 263 262 262 261 261 261 261 261 260 259 257 255 254 252 250 247 245 243 243 245 246 249 251 252 253 254 255
262 262 261 261 260 260 259 259 259 259 258 258 256 255 256 257 258 258 258 257 257 257 257 257 257 258 258 258 259 259 260 259 259 259 258 258 259 260 261 262 263 264 266 267 268 269 270 270 271 271 272 272 271 271 270 269 268 266 265 263 262 261 260 259 259 259 259 259 257 255 254 252 251 248 245 242 241 240 241 243 246 248 249 250 251 252
261 261 260 260 260 259 259 258 258 258 258 258 256 255 253 254 255 256 258 259 259 259 258 258 257 257 257 257 258 258 258 258 258 258 257 257 258 258 259 260 262 263 264 265 266 267 268 269 269 270 270 271 271 271 270 270 269 268 266 264 262 260 258 258 258 258 258 257 256 254 253 252 250 247 243 241 240 239 240 241 243 245 246 247 248 249
261 260 260 260 259 259 258 258 258 258 257 257 257 256 254 253 253 254 255 257 259 260 260 259 258 257 257 257 257 257 257 257 257 257 256 256 256 257 258 259 260 261 262 263 264 265 266 267 267 268 269 269 270 270 269 269 268 267 266 265 262 260 258 257 256 256 257 256 255 254 252 251 249 246 242 240 239 239 239 239 240 242 244 245 245 246
260 260 259 259 259 259 258 258 258 258 257 257 257 256 255 254 254 253 254 255 258 259 260 260 259 258 257 256 256 256 256 256 256 256 256 256 256 256 257 257 258 259 260 261 262 263 263 264 265 266 267 267 268 268 267 267 266 266 265 264 262 260 258 256 255 255 255 255 254 253 252 251 248 245 241 239 238 238 239 239 239 240 241 242 243 243
259 259 259 260 259 259 259 258 258 258 258 257 257 257 256 256 255 255 256 256 257 258 260 260 260 259 258 257 256 255 255 255 255 255 255 256 256 256 257 257 257 258 259 259 260 261 261 262 262 263 264 264 265 265 265 264 263 263 263 262 261 259 258 256 255 255 255 254 254 253 252 250 247 244 241 239 238 238 239 239 239 239 239 240 241 241
259 260 260 260 260 260 259 259 259 259 258 258 257 257 257 256 256 257 257 258 258 259 259 260 261 260 259 257 255 254 254 254 254 255 255 256 257 257 258 258 258 258 258 258 259 259 260 260 260 260 261 261 262 262 262 261 261 260 260 260 259 258 257 256 255 254 254 254 254 254 252 250 247 243 240 238 238 239 240 240 239 239 238 239 239 239
259 260 261 261 261 261 261 260 260 260 259 258 258 257 257 257 257 257 258 258 258 259 259 260 260 259 258 256 255 254 253 253 253 254 255 256 257 258 259 259 259 258 258 258 258 258 259 259 258 258 258 259 259 259 259 259 258 258 258 258 257 257 257 256 255 254 254 254 254 254 252 250 246 243 240 239 239 240 241 241 241 240 238 238 237 237
257 258 259 259 260 261 261 261 261 260 260 259 257 257 256 256 257 257 257 257 258 258 258 258 258 257 257 256 255 254 253 253 253 254 255 256 257 259 259 260 259 259 258 258 258 258 258 258 257 257 257 257 257 257 257 257 256 256 255 256 256 256 256 255 255 254 254 254 254 253 252 249 245 242 240 239 239 241 242 243 242 241 239 237 236 235
255 257 257 258 259 260 260 261 261 260 259 257 256 255 254 255 256 257 257 257 257 256 256 255 255 255 255 255 254 254 253 253 254 255 256 257 258 258 259 259 259 259 259 259 258 258 258 257 257 257 256 256 256 256 256 255 255 254 254 254 254 255 255 255 255 254 254 254 253 253 251 248 245 242 240 240 240 241 243 244 244 243 241 238 236 234
254 255 256 257 258 259 260 260 260 259 258 256 254 253 252 253 254 256 256 256 255 254 253 252 252 251 252 252 253 253 254 254 255 257 258 259 259 259 258 258 259 259 259 259 258 258 257 257 256 256 255 255 255 255 254 254 254 253 253 253 254 254 254 255 255 255 254 254 253 252 250 247 244 242 240 240 241 242 243 244 244 243 241 239 237 234
254 254 254 255 256 257 258 259 259 259 258 256 255 253 251 251 253 254 255 254 253 252 251 250 249 249 249 250 251 252 253 254 256 257 259 260 260 259 258 257 258 258 258 258 257 257 256 256 256 255 255 254 254 254 254 254 253 253 253 253 254 254 255 255 255 255 255 254 253 251 248 246 244 242 241 241 242 243 244 245 244 243 241 238 236 234
257 255 254 253 254 254 255 256 257 258 258 258 256 253 251 250 251 252 254 253 252 251 250 249 248 247 248 249 251 252 253 254 256 257 258 259 259 258 256 255 256 257 257 257 256 255 255 255 255 254 254 254 253 253 253 253 254 254 254 254 254 255 255 255 256 256 255 254 252 250 247 245 243 242 241 242 243 244 245 245 244 242 240 237 234 232
259 257 256 255 254 254 253 253 254 256 257 258 257 254 252 251 250 251 252 253 252 251 250 249 248 248 249 250 252 253 254 256 257 258 258 258 257 255 253 253 254 256 256 255 255 254 254 254 254 253 253 253 253 253 253 253 254 254 254 255 255 255 255 255 255 255 254 253 251 248 246 244 242 242 242 243 243 244 245 245 244 242 239 236 233 231
259 258 257 256 255 255 254 253 253 253 255 257 257 255 254 253 252 252 252 253 252 252 252 251 250 250 251 251 253 254 256 258 259 259 258 257 255 252 250 251 253 254 255 254 254 253 253 253 253 253 253 253 252 252 253 253 254 254 255 255 255 254 254 254 254 253 252 251 249 247 245 243 242 242 243 243 244 245 245 244 243 241 238 235 232 230
260 259 258 257 256 256 255 254 253 253 253 254 254 253 253 254 254 253 253 253 252 251 251 251 251 251 251 251 252 254 257 259 259 257 256 255 252 249 247 248 250 253 254 254 254 253 253 253 254 253 253 253 253 253 253 254 254 254 254 254 254 254 253 253 252 252 251 250 248 246 244 243 243 243 244 244 245 245 245 244 242 239 236 233 231 229
261 261 260 259 258 257 256 256 255 254 254 253 251 250 250 252 253 253 253 253 253 251 249 249 250 250 250 250 251 254 259 258 256 253 252 251 249 247 246 247 249 251 253 254 254 254 254 254 254 254 254 254 254 254 255 255 255 255 254 254 253 253 252 251 251 250 249 248 247 246 245 244 244 244 245 246 246 246 245 243 241 237 234 231 229 228
261 261 261 260 260 259 258 257 256 255 254 252 250 249 249 249 250 251 253 253 253 251 249 249 249 249 249 249 251 255 259 257 253 250 249 248 247 246 246 247 249 251 253 255 256 256 256 256 256 256 256 256 256 257 257 257 256 255 254 253 252 251 250 249 249 249 248 248 247 246 245 245 245 246 246 246 246 246 244 242 239 235 232 230 228 228
260 260 260 260 260 259 259 258 257 256 255 253 251 250 250 249 249 250 251 252 252 251 249 249 249 249 248 249 252 256 259 256 252 249 248 248 248 248 249 250 251 253 255 256 257 257 257 257 257 257 257 258 258 259 259 258 257 256 254 253 251 250 249 248 247 247 247 247 247 246 246 246 246 246 246 246 246 245 243 240 236 233 230 229 228 228
260 259 259 259 259 258 258 258 257 257 256 254 253 252 251 250 250 249 249 250 250 250 249 249 249 248 249 250 252 255 257 255 251 249 248 249 251 251 252 253 254 255 256 258 259 259 258 257 256 256 257 257 257 258 258 257 257 256 254 253 251 250 248 247 246 246 246 246 246 246 246 246 246 246 246 246 245 244 241 238 235 232 230 229 229 229
261 260 259 259 258 257 257 256 256 256 256 255 255 254 253 252 251 250 249 248 248 248 248 248 248 248 248 249 251 253 254 253 250 247 248 250 253 254 255 255 255 256 257 258 259 259 258 257 255 254 254 254 254 254 254 254 254 254 253 252 251 250 248 247 246 246 246 246 246 246 246 246 246 246 245 245 244 242 239 236 234 231 230 230 229 229
261 260 259 259 258 257 256 255 255 255 255 255 255 254 254 253 252 252 250 249 248 247 247 246 246 246 246 247 249 250 252 252 249 246 246 249 252 254 254 254 254 255 256 258 259 260 259 257 255 253 252 251 250 250 249 250 250 251 251 250 250 249 248 247 246 246 246 246 246 246 246 246 245 245 244 244 242 241 238 236 233 232 231 230 230 230
260 259 259 258 258 257 257 256 254 253 253 253 254 254 254 253 252 252 251 250 249 248 247 246 245 244 244 245 246 248 250 251 248 246 245 248 250 251 251 251 251 252 254 256 258 259 259 257 254 252 250 250 249 248 247 246 247 247 247 248 248 247 247 247 247 246 246 246 246 246 246 245 244 244 243 243 241 240 238 236 234 232 232 231 231 231
258 258 258 257 257 257 256 256 254 253 252 251 251 252 252 252 252 251 251 250 250 250 249 248 246 245 243 243 244 245 247 248 247 246 247 249 250 250 249 248 248 249 251 253 255 257 257 256 253 251 249 248 248 247 246 245 244 243 243 244 245 246 246 247 247 247 247 247 246 246 245 244 243 243 242 242 241 240 238 236 234 233 233 232 232 232
258 257 257 256 256 256 255 255 254 253 252 250 250 250 250 250 251 250 250 250 249 249 250 249 249 247 245 244 243 244 245 246 246 246 247 250 251 250 249 247 247 248 249 250 251 253 253 253 251 249 248 247 246 246 246 245 243 242 241 241 242 243 245 246 246 247 247 247 246 245 244 243 242 242 241 241 241 240 238 237 236 235 234 233 233 232
258 257 256 256 255 255 254 254 254 253 252 251 249 248 248 248 248 249 249 248 248 248 248 249 249 249 248 247 246 245 245 245 245 246 247 250 251 251 249 247 247 247 247 247 247 248 248 248 247 246 246 245 245 245 245 245 244 242 241 240 240 240 242 243 244 245 245 245 245 244 243 241 241 240 241 241 241 240 239 238 237 236 235 234 234 233
259 258 257 256 255 254 254 253 253 252 252 251 250 248 247 247 246 247 247 247 247 247 246 246 247 247 248 248 248 247 246 246 246 246 247 249 250 250 249 248 247 247 247 246 245 244 243 243 243 243 243 243 243 244 244 245 244 244 242 241 240 240 240 240 241 241 242 242 242 242 241 240 239 239 240 240 241 241 240 239 238 237 236 235 234 234
260 259 258 257 256 255 254 253 253 252 252 251 250 249 247 246 245 245 245 245 245 245 245 245 244 244 244 245 245 246 247 247 247 247 248 248 250 250 250 248 247 246 246 246 245 243 241 240 240 240 240 240 241 242 243 244 244 244 244 243 242 241 240 239 239 238 238 238 238 238 238 237 237 238 239 240 241 241 241 240 239 238 237 236 235 234
262 261 260 259 258 257 256 255 254 253 252 251 250 249 248 247 245 245 244 244 244 243 243 243 243 243 242 241 241 241 243 244 246 247 248 248 249 250 250 249 248 246 245 245 244 243 241 239 237 237 237 237 239 240 241 243 244 244 244 244 243 243 242 240 239 238 237 236 235 234 234 234 235 236 237 238 240 240 241 240 240 239 237 236 235 235
263 262 261 260 259 258 257 256 255 254 253 252 251 250 249 247 246 245 244 243 243 242 242 242 242 242 241 240 239 239 239 240 241 243 245 246 247 248 249 249 249 248 247 245 244 242 240 238 236 234 234 234 236 237 239 241 242 243 243 243 243 243 242 241 240 239 237 235 234 232 231 231 232 233 235 236 238 239 239 239 239 238 237 236 235 234
264 263 262 261 260 259 258 257 256 255 254 253 252 251 250 248 247 245 244 243 242 242 242 241 241 241 240 240 239 238 237 237 237 238 240 242 244 245 246 247 248 248 248 247 245 243 241 238 236 234 232 232 233 235 236 238 239 241 242 242 242 242 241 241 240 239 238 236 234 232 230 229 229 230 231 233 235 236 237 237 237 237 236 235 235 233
265 264 263 262 261 259 259 258 257 256 255 254 253 252 251 249 248 246 245 244 243 242 241 241 240 240 240 239 239 238 237 236 236 236 236 238 239 241 242 244 246 247 247 247 246 245 242 240 238 235 233 232 232 233 234 235 236 238 239 240 240 240 240 239 239 238 237 236 234 232 230 229 228 228 229 230 231 233 234 234 235 235 235 234 233 232
267 266 264 263 261 260 259 258 257 256 256 255 254 253 252 251 249 248 246 244 243 242 241 241 240 240 239 239 239 238 238 237 236 235 234 235 236 238 239 241 243 245 246 247 246 245 244 242 240 237 235 233 233 233 233 233 234 235 236 237 237 238 238 238 237 237 236 235 234 233 231 230 229 228 228 229 229 230 231 232 233 233 233 233 232 231
268 267 265 264 262 261 260 258 258 257 256 255 254 253 252 251 250 249 247 246 244 243 242 241 240 240 239 239 239 238 238 238 237 236 235 234 234 235 236 238 239 242 244 245 246 245 245 243 241 239 237 236 235 234 233 233 233 233 233 234 235 235 236 236 236 236 236 235 234 233 232 231 230 229 229 229 229 230 230 231 231 231 232 231 231 230
270 268 266 265 264 262 261 259 258 257 256 255 254 254 253 252 251 249 248 247 245 244 242 241 240 240 239 239 239 238 238 238 237 237 236 235 233 233 234 235 237 239 241 243 244 245 245 244 243 241 239 238 237 236 235 234 233 233 232 233 233 233 233 234 234 235 235 235 235 234 233 232 231 230 230 230 229 230 230 230 230 230 230 230 229 229
270 269 267 266 265 263 261 260 259 258 257 256 255 254 253 252 251 250 249 247 246 245 243 242 241 240 240 239 239 238 238 238 237 237 236 236 235 233 233 233 234 236 238 240 242 243 244 244 243 242 241 239 238 238 237 236 235 234 233 232 232 232 232 232 233 234 235 235 236 235 235 234 233 232 231 230 229 229 229 230 230 229 229 229 228 227
271 269 268 267 265 264 262 261 260 259 258 257 256 255 254 253 251 250 249 248 247 245 244 243 241 241 240 239 239 239 238 238 237 237 236 236 235 235 234 233 232 233 234 237 239 241 242 243 242 242 241 240 239 238 238 237 236 235 235 234 233 232 232 232 232 232 233 234 235 235 235 234 233 232 231 230 229 229 228 228 228 229 229 228 228 227
271 270 268 267 266 265 263 262 261 259 258 257 256 255 254 253 252 251 250 249 248 246 245 243 242 241 240 240 239 239 238 238 237 237 237 236 236 235 235 234 232 231 232 233 236 238 240 241 241 241 241 240 239 239 238 238 237 237 236 235 235 234 233 232 232 231 232 233 233 234 234 234 233 232 231 230 229 228 227 226 226 227 228 228 228 227
270 269 268 267 266 265 265 263 262 261 260 258 257 256 255 255 254 252 251 250 249 247 246 245 243 242 241 240 240 239 239 238 238 237 237 236 236 235 235 234 233 232 231 231 232 234 236 238 240 240 240 240 239 239 238 238 237 237 237 237 236 235 234 233 232 232 232 232 232 232 232 232 232 231 231 230 228 227 226 225 224 224 225 227 227 228
269 268 268 268 267 266 266 265 264 263 262 261 259 258 257 256 255 254 252 251 250 249 248 246 244 243 242 241 240 240 239 239 238 237 237 236 236 235 235 234 234 233 232 232 232 232 233 235 237 238 239 239 239 239 238 238 237 237 237 237 237 236 236 235 234 233 232 231 231 231 231 231 231 230 230 229 228 227 226 224 223 223 223 225 226 227
267 267 267 267 268 268 267 267 267 266 266 264 263 262 260 259 258 256 254 253 252 251 249 248 246 244 243 242 241 241 240 239 239 238 237 237 236 235 235 234 234 234 233 233 232 232 232 233 234 235 237 238 239 239 238 238 237 237 237 237 237 237 236 236 235 234 233 232 231 230 230 230 229 229 229 228 228 227 226 225 223 222 222 223 224 226
266 266 267 267 268 268 269 269 269 269 268 268 267 266 264 263 261 259 258 256 254 253 251 250 248 246 244 243 242 242 241 240 240 239 238 237 236 236 235 234 234 234 233 233 233 233 233 232 232 233 234 235 236 237 238 238 238 237 237 236 236 236 236 236 235 235 234 233 232 230 229 229 228 228 228 228 227 226 226 225 224 223 222 222 222 224
266 267 267 268 268 269 270 270 270 270 270 270 270 269 268 267 265 263 261 259 258 256 254 252 250 248 247 245 244 243 242 241 240 240 239 238 237 236 235 235 234 234 233 233 233 232 232 232 232 232 232 232 233 235 236 236 237 237 237 237 236 236 236 236 235 235 234 233 232 231 230 228 228 227 227 227 226 226 225 225 224 223 222 222 222 223
267 267 267 268 269 270 270 271 271 271 271 271 271 271 270 270 268 266 265 263 261 259 257 255 253 251 249 247 246 245 244 242 242 241 240 239 238 237 236 235 234 233 233 232 232 232 231 231 231 231 231 231 231 232 232 233 234 235 236 236 236 236 236 235 235 235 234 233 232 231 230 228 227 227 226 226 226 225 225 224 224 223 223 222 222 222
267 267 268 268 269 270 271 272 272 272 272 272 272 272 271 271 270 269 267 266 264 262 260 258 257 255 252 250 249 247 245 244 243 242 242 241 240 239 237 236 235 234 233 232 231 231 230 230 230 230 230 230 230 230 230 230 231 231 232 233 234 235 235 235 235 234 234 233 232 231 230 228 227 226 226 225 225 224 224 224 224 223 223 223 222 223